• In Schweiz
  • Länderverzeichnis
  • Für 7 Tage
  • Wassertemperatur
  • Satellitenkarten
  • Wetterkarte
  • Widgets
  • user-avatar
    Anmelden

    Stündliche Wetter Abutalipovo

    Heute, 21 Juli, Samstag

    Zeit Temperatur Niederschläge Wind Luftdruck Luftfeuchtigkeit
    00:00 +16°C° 0 mm 5 m/S 741 mmHg 84%
    01:00 +15°C° 0 mm 5 m/S 741 mmHg 85%
    02:00 +15°C° 0 mm 5 m/S 741 mmHg 86%
    03:00 +15°C° 0 mm 5 m/S 741 mmHg 87%
    04:00 +15°C° 0 mm 4 m/S 741 mmHg 90%
    05:00 +16°C° 0 mm 5 m/S 741 mmHg 87%
    06:00 +17°C° 0 mm 5 m/S 741 mmHg 84%
    07:00 +19°C° 0 mm 6 m/S 741 mmHg 81%
    08:00 +20°C° 0 mm 6 m/S 741 mmHg 76%
    09:00 +21°C° 0 mm 6 m/S 742 mmHg 71%
    10:00 +22°C° 0 mm 7 m/S 742 mmHg 66%
    11:00 +22°C° 0 mm 6 m/S 742 mmHg 63%
    12:00 +23°C° 0 mm 6 m/S 742 mmHg 59%
    13:00 +23°C° 0 mm 6 m/S 742 mmHg 56%
    14:00 +23°C° 0 mm 6 m/S 742 mmHg 56%
    15:00 +25°C° 0 mm 5 m/S 742 mmHg 56%
    16:00 +25°C° 0 mm 5 m/S 742 mmHg 56%
    17:00 +23°C° 0 mm 5 m/S 742 mmHg 60%
    18:00 +21°C° 0 mm 4 m/S 742 mmHg 64%
    19:00 +20°C° 0 mm 3 m/S 742 mmHg 68%
    20:00 +19°C° 0 mm 4 m/S 742 mmHg 69%
    21:00 +18°C° 0 mm 4 m/S 743 mmHg 70%
    22:00 +15°C° 0 mm 4 m/S 743 mmHg 71%
    23:00 +15°C° 0 mm 4 m/S 743 mmHg 70%

    Morgen, 22 Juli, Sonntag

    Zeit Temperatur Niederschläge Wind Luftdruck Luftfeuchtigkeit
    00:00 +14°C° 0 mm 4 m/S 743 mmHg 70%
    01:00 +13°C° 0 mm 4 m/S 743 mmHg 70%
    02:00 +13°C° 0 mm 4 m/S 743 mmHg 71%
    03:00 +12°C° 0 mm 4 m/S 743 mmHg 71%
    04:00 +11°C° 0 mm 4 m/S 744 mmHg 72%
    05:00 +12°C° 0 mm 4 m/S 744 mmHg 70%
    06:00 +13°C° 0 mm 5 m/S 744 mmHg 68%
    07:00 +14°C° 0 mm 5 m/S 744 mmHg 66%
    08:00 +15°C° 0 mm 5 m/S 744 mmHg 60%
    09:00 +17°C° 0 mm 6 m/S 744 mmHg 55%
    10:00 +19°C° 0 mm 6 m/S 745 mmHg 50%
    11:00 +20°C° 0 mm 6 m/S 744 mmHg 49%
    12:00 +21°C° 0 mm 6 m/S 744 mmHg 47%
    13:00 +21°C° 0 mm 5 m/S 744 mmHg 46%
    14:00 +22°C° 0 mm 5 m/S 744 mmHg 47%
    15:00 +22°C° 0 mm 5 m/S 744 mmHg 48%
    16:00 +22°C° 0 mm 5 m/S 744 mmHg 49%
    17:00 +21°C° 0 mm 4 m/S 744 mmHg 55%
    18:00 +20°C° 0 mm 3 m/S 744 mmHg 60%
    19:00 +19°C° 0 mm 3 m/S 744 mmHg 65%
    20:00 +17°C° 0 mm 3 m/S 744 mmHg 68%
    21:00 +14°C° 0 mm 3 m/S 745 mmHg 71%
    22:00 +13°C° 0 mm 3 m/S 745 mmHg 74%
    23:00 +13°C° 0 mm 2 m/S 745 mmHg 76%

    übermorgen, 23 Juli, Montag

    Zeit Temperatur Niederschläge Wind Luftdruck Luftfeuchtigkeit
    00:00 +12°C° 0 mm 2 m/S 745 mmHg 79%
    01:00 +10°C° 0 mm 2 m/S 746 mmHg 81%
    02:00 +10°C° 0 mm 2 m/S 746 mmHg 81%
    03:00 +9°C° 0 mm 2 m/S 746 mmHg 82%
    04:00 +9°C° 0 mm 2 m/S 746 mmHg 83%
    05:00 +12°C° 0 mm 2 m/S 746 mmHg 79%
    06:00 +13°C° 0 mm 2 m/S 747 mmHg 75%
    07:00 +15°C° 0 mm 2 m/S 747 mmHg 71%
    08:00 +17°C° 0 mm 2 m/S 747 mmHg 65%
    09:00 +18°C° 0 mm 3 m/S 747 mmHg 59%
    10:00 +20°C° 0 mm 3 m/S 747 mmHg 53%
    11:00 +21°C° 0 mm 3 m/S 746 mmHg 50%
    12:00 +22°C° 0 mm 3 m/S 746 mmHg 48%
    13:00 +24°C° 0 mm 3 m/S 746 mmHg 46%
    14:00 +25°C° 0 mm 3 m/S 746 mmHg 47%
    15:00 +25°C° 0 mm 2 m/S 746 mmHg 48%
    16:00 +26°C° 0 mm 2 m/S 746 mmHg 48%
    17:00 +25°C° 0 mm 2 m/S 745 mmHg 55%
    18:00 +24°C° 0 mm 2 m/S 745 mmHg 62%
    19:00 +23°C° 0 mm 1 m/S 745 mmHg 69%
    20:00 +21°C° 0 mm 1 m/S 745 mmHg 73%
    21:00 +20°C° 0 mm 1 m/S 746 mmHg 77%
    22:00 +17°C° 0 mm 2 m/S 746 mmHg 81%
    23:00 +16°C° 0 mm 2 m/S 746 mmHg 83%

    24 Juli, Dienstag

    Zeit Temperatur Niederschläge Wind Luftdruck Luftfeuchtigkeit
    00:00 +16°C° 0 mm 2 m/S 746 mmHg 85%
    01:00 +15°C° 0 mm 1 m/S 746 mmHg 86%
    02:00 +15°C° 0 mm 1 m/S 746 mmHg 87%
    03:00 +15°C° 0 mm 1 m/S 746 mmHg 87%
    04:00 +14°C° 0 mm 1 m/S 746 mmHg 88%
    05:00 +16°C° 0 mm 1 m/S 746 mmHg 83%
    06:00 +17°C° 0 mm 2 m/S 746 mmHg 79%
    07:00 +19°C° 0 mm 2 m/S 747 mmHg 74%
    08:00 +21°C° 0 mm 2 m/S 747 mmHg 69%
    09:00 +24°C° 0 mm 2 m/S 747 mmHg 63%
    10:00 +25°C° 0 mm 2 m/S 747 mmHg 58%
    11:00 +26°C° 0 mm 3 m/S 746 mmHg 55%
    12:00 +27°C° 0 mm 3 m/S 746 mmHg 52%
    13:00 +29°C° 0 mm 3 m/S 746 mmHg 49%
    14:00 +29°C° 0 mm 3 m/S 746 mmHg 49%
    15:00 +29°C° 0 mm 3 m/S 746 mmHg 50%
    16:00 +29°C° 0 mm 3 m/S 746 mmHg 51%
    17:00 +28°C° 0 mm 2 m/S 746 mmHg 57%
    18:00 +27°C° 0 mm 2 m/S 746 mmHg 62%
    19:00 +25°C° 0 mm 2 m/S 746 mmHg 68%
    20:00 +24°C° 0 mm 2 m/S 746 mmHg 70%
    21:00 +23°C° 0 mm 2 m/S 746 mmHg 71%
    22:00 +21°C° 0 mm 2 m/S 746 mmHg 72%
    23:00 +20°C° 0 mm 2 m/S 746 mmHg 72%

    25 Juli, Mittwoch

    Zeit Temperatur Niederschläge Wind Luftdruck Luftfeuchtigkeit
    00:00 +20°C° 0 mm 2 m/S 746 mmHg 72%
    01:00 +20°C° 0 mm 2 m/S 747 mmHg 71%
    02:00 +19°C° 0 mm 2 m/S 747 mmHg 73%
    03:00 +19°C° 0 mm 2 m/S 747 mmHg 75%
    04:00 +18°C° 0 mm 2 m/S 747 mmHg 77%
    05:00 +19°C° 0 mm 2 m/S 747 mmHg 76%
    06:00 +20°C° 0 mm 2 m/S 747 mmHg 76%
    07:00 +21°C° 0 mm 2 m/S 747 mmHg 75%
    08:00 +24°C° 0 mm 2 m/S 747 mmHg 68%
    09:00 +26°C° 0 mm 2 m/S 747 mmHg 61%
    10:00 +28°C° 0 mm 2 m/S 747 mmHg 54%
    11:00 +29°C° 0 mm 2 m/S 747 mmHg 51%
    12:00 +29°C° 0 mm 2 m/S 747 mmHg 47%
    13:00 +30°C° 0 mm 3 m/S 747 mmHg 44%
    14:00 +30°C° 0 mm 3 m/S 747 mmHg 45%
    15:00 +30°C° 0 mm 3 m/S 747 mmHg 46%
    16:00 +30°C° 0 mm 3 m/S 747 mmHg 47%
    17:00 +29°C° 0 mm 2 m/S 747 mmHg 53%
    18:00 +28°C° 0 mm 2 m/S 747 mmHg 60%
    19:00 +26°C° 0 mm 2 m/S 747 mmHg 66%
    20:00 +25°C° 0 mm 1 m/S 747 mmHg 68%
    21:00 +23°C° 0 mm 1 m/S 747 mmHg 70%
    22:00 +21°C° 0 mm 1 m/S 748 mmHg 72%
    23:00 +21°C° 0 mm 1 m/S 748 mmHg 72%

    26 Juli, Donnerstag

    Zeit Temperatur Niederschläge Wind Luftdruck Luftfeuchtigkeit
    00:00 +20°C° 0 mm 1 m/S 748 mmHg 72%
    01:00 +18°C° 0 mm 0 m/S 748 mmHg 73%
    02:00 +18°C° 0 mm 0 m/S 748 mmHg 74%
    03:00 +17°C° 0 mm 0 m/S 748 mmHg 74%
    04:00 +17°C° 0 mm 0 m/S 748 mmHg 75%
    05:00 +18°C° 0 mm 0 m/S 749 mmHg 74%
    06:00 +21°C° 0 mm 1 m/S 749 mmHg 72%
    07:00 +23°C° 0 mm 1 m/S 749 mmHg 70%
    08:00 +24°C° 0 mm 1 m/S 749 mmHg 66%
    09:00 +26°C° 0 mm 1 m/S 749 mmHg 61%
    10:00 +28°C° 0 mm 1 m/S 749 mmHg 56%
    11:00 +29°C° 0 mm 2 m/S 749 mmHg 52%
    12:00 +30°C° 0 mm 2 m/S 749 mmHg 49%
    13:00 +31°C° 0 mm 2 m/S 748 mmHg 45%
    14:00 +31°C° 0 mm 2 m/S 748 mmHg 46%
    15:00 +31°C° 0 mm 2 m/S 748 mmHg 46%
    16:00 +31°C° 0 mm 2 m/S 748 mmHg 46%
    17:00 +30°C° 0 mm 2 m/S 748 mmHg 52%
    18:00 +29°C° 0 mm 2 m/S 748 mmHg 59%
    19:00 +27°C° 0 mm 2 m/S 748 mmHg 65%
    20:00 +25°C° 0 mm 2 m/S 748 mmHg 66%
    21:00 +24°C° 0 mm 2 m/S 748 mmHg 68%
    22:00 +21°C° 0 mm 2 m/S 748 mmHg 69%
    23:00 +21°C° 0 mm 2 m/S 748 mmHg 70%
    Mehr zeigen